Flag for China Weather past 2 weeks in Zhengzhou, Henan, China

Now
72 °F

Clear.


Feels Like: 75 °F
Forecast: 59 / 79 °F
Wind: 3 mph from West

Location: Zhengzhou Airport

Current Time: Sep 23, 2014 at 8:21:28 PM

Latest Report: Sep 23, 2014 at 7:00 PM


Visibility: 5 mi

Pressure: 29.98 "Hg

Humidity: 65%

Dew point: 59 °F

Location of ZhengzhouLocation

Historic Weather in Zhengzhou — Graph

°F

Zhengzhou temperature yesterday

Maximum temperature yesterday: 82 °F (at 2:00 PM)
Minimum temperature yesterday: 61 °F (at 3:00 AM)
Average temperature yesterday: 71 °F

Past Weeks' High & Low Weather Summary

 TemperatureHumidityPressure
High82 °F (Sep 10, 12:00 PM)100% (Sep 9, 6:00 AM)30.18 "Hg (Sep 9, 6:00 AM)
Low55 °F (Sep 15, 4:00 PM)37% (Sep 22, 4:00 PM)29.80 "Hg (Sep 8, 7:00 PM)
Average67 °F88%29.98 "Hg
* Reported Sep 8 7:00 PM — Sep 23 7:00 PM, Zhengzhou, Weather by CustomWeather, © 2014

Note: Actual official high and low records may vary slightly from our data, if they occured in-between our weather recording intervals... More about our weather records

Advertising

Zhengzhou weather history for previous 24 hours

 ConditionsComfort  
Time TempWeatherWind HumidityBarometerVisibility
7:00 PM
Sep 23
72 °FClear.3 mph65%29.98 "Hg5 mi
6:00 PM77 °FSunny.1 mph44%29.95 "Hg10 mi
5:00 PM77 °FPassing clouds.3 mph44%29.95 "HgN/A
4:00 PM77 °FPassing clouds.6 mph44%29.95 "HgN/A
3:00 PM79 °FPassing clouds.8 mph42%29.98 "HgN/A
2:00 PM82 °FPassing clouds.6 mph40%29.98 "HgN/A
1:00 PM79 °FSunny.1 mph45%30.01 "Hg10 mi
12:00 PM77 °FSunny.1 mph47%30.01 "Hg10 mi
11:00 AM77 °FPassing clouds.3 mph54%30.04 "HgN/A
10:00 AM75 °FSunny.1 mph57%30.04 "Hg10 mi
9:00 AM73 °FClear.1 mph69%30.04 "Hg5 mi
8:00 AM68 °FClear.1 mph83%30.04 "Hg4 mi
7:00 AM63 °FFog.No wind100%30.01 "Hg3 mi
6:00 AM61 °FFog.1 mph94%30.01 "Hg3 mi
5:00 AM63 °FFog.1 mph94%30.01 "Hg3 mi
4:00 AM63 °FFog.No wind94%30.01 "Hg3 mi
3:00 AM61 °FFog.1 mph94%30.01 "Hg3 mi
2:00 AM63 °FFog.No wind88%30.01 "Hg3 mi
1:00 AM66 °FFog.1 mph83%30.04 "Hg3 mi
12:00 AM66 °FFog.1 mph88%30.04 "Hg3 mi
11:00 PM
Sep 22
66 °FClear.3 mph83%30.04 "Hg4 mi
10:00 PM66 °FClear.1 mph88%30.01 "Hg4 mi
9:00 PM66 °FClear.1 mph88%30.01 "Hg4 mi
8:00 PM75 °FClear.6 mph54%30.01 "Hg10 mi
Weather by CustomWeather, © 2014

See weather overviewHow to use our weather pages